When you browse on this site, cookies collect data to enhance your experience and personalize the content and advertising you see.
Visit our Privacy Policy to learn more. By continuing to use the site, you agree to this use of cookies and data.
  • In Portugal
  • List of Countries
  • For 7 days
  • Water Temperature
  • Satellite Maps
  • Weather Map
  • Weather Widgets
  • user-avatar
    Login

    Hourly Weather Gronajny

    Today, 18 February, Monday

    Time Temperature Precipitation Wind Pressure Humidity
    00:00 +4°C° 0 mm 1 mps 763 mmHg 94%
    01:00 +2°C° 0 mm 0 mps 763 mmHg 95%
    02:00 +2°C° 0 mm 0 mps 763 mmHg 95%
    03:00 +2°C° 0 mm 0 mps 762 mmHg 95%
    04:00 +2°C° 0 mm 0 mps 762 mmHg 95%
    05:00 +3°C° 0 mm 1 mps 762 mmHg 95%
    06:00 +3°C° 0 mm 1 mps 762 mmHg 95%
    07:00 +3°C° 0 mm 1 mps 762 mmHg 95%
    08:00 +3°C° 0 mm 2 mps 762 mmHg 92%
    09:00 +4°C° 0 mm 2 mps 762 mmHg 89%
    10:00 +6°C° 0 mm 2 mps 762 mmHg 86%
    11:00 +7°C° 0 mm 3 mps 762 mmHg 82%
    12:00 +8°C° 0 mm 3 mps 762 mmHg 78%
    13:00 +8°C° 0 mm 4 mps 761 mmHg 73%
    14:00 +8°C° 0 mm 4 mps 761 mmHg 75%
    15:00 +8°C° 0 mm 4 mps 760 mmHg 77%
    16:00 +8°C° 0 mm 3 mps 760 mmHg 78%
    17:00 +6°C° 0 mm 4 mps 760 mmHg 82%
    18:00 +6°C° 0 mm 4 mps 759 mmHg 85%
    19:00 +5°C° 0 mm 4 mps 759 mmHg 89%
    20:00 +4°C° 0 mm 4 mps 759 mmHg 88%
    21:00 +4°C° 0 mm 4 mps 759 mmHg 88%
    22:00 +3°C° 0 mm 4 mps 758 mmHg 88%
    23:00 +3°C° 0 mm 3 mps 758 mmHg 87%

    Tomorrow, 19 February, Tuesday

    Time Temperature Precipitation Wind Pressure Humidity
    00:00 +3°C° 0 mm 3 mps 758 mmHg 86%
    01:00 +2°C° 0 mm 3 mps 757 mmHg 86%
    02:00 +2°C° 0 mm 3 mps 757 mmHg 85%
    03:00 +1°C° 0 mm 4 mps 756 mmHg 84%
    04:00 0°C° 0 mm 4 mps 756 mmHg 83%
    05:00 0°C° 0 mm 4 mps 755 mmHg 83%
    06:00 0°C° 0 mm 4 mps 755 mmHg 82%
    07:00 0°C° 0 mm 4 mps 754 mmHg 82%
    08:00 +1°C° 0 mm 5 mps 754 mmHg 78%
    09:00 +3°C° 0 mm 6 mps 754 mmHg 73%
    10:00 +4°C° 0 mm 6 mps 753 mmHg 69%
    11:00 +5°C° 0 mm 6 mps 753 mmHg 68%
    12:00 +7°C° 0 mm 6 mps 753 mmHg 66%
    13:00 +8°C° 0 mm 6 mps 753 mmHg 65%
    14:00 +8°C° 0 mm 6 mps 753 mmHg 69%
    15:00 +8°C° 0 mm 5 mps 753 mmHg 72%
    16:00 +8°C° 0 mm 5 mps 753 mmHg 76%
    17:00 +7°C° 0.3 mm 4 mps 753 mmHg 79%
    18:00 +6°C° 0.3 mm 4 mps 753 mmHg 81%
    19:00 +5°C° 0.3 mm 4 mps 753 mmHg 84%
    20:00 +5°C° 0 mm 4 mps 753 mmHg 84%
    21:00 +4°C° 0 mm 4 mps 753 mmHg 85%
    22:00 +4°C° 0 mm 4 mps 753 mmHg 85%
    23:00 +4°C° 0 mm 4 mps 753 mmHg 85%

    Day after tomorrow, 20 February, Wednesday

    Time Temperature Precipitation Wind Pressure Humidity
    00:00 +3°C° 0 mm 5 mps 753 mmHg 84%
    01:00 +3°C° 0 mm 5 mps 754 mmHg 83%
    02:00 +3°C° 0 mm 5 mps 754 mmHg 82%
    03:00 +3°C° 0 mm 5 mps 754 mmHg 82%
    04:00 +2°C° 0 mm 5 mps 754 mmHg 81%
    05:00 +2°C° 0.1 mm 5 mps 754 mmHg 81%
    06:00 +2°C° 0.1 mm 5 mps 754 mmHg 81%
    07:00 +2°C° 0.1 mm 5 mps 754 mmHg 81%
    08:00 +3°C° 0.1 mm 6 mps 755 mmHg 78%
    09:00 +3°C° 0.1 mm 7 mps 755 mmHg 74%
    10:00 +4°C° 0.1 mm 7 mps 756 mmHg 71%
    11:00 +4°C° 0 mm 7 mps 756 mmHg 69%
    12:00 +4°C° 0 mm 7 mps 756 mmHg 68%
    13:00 +5°C° 0 mm 7 mps 756 mmHg 66%
    14:00 +5°C° 0 mm 7 mps 757 mmHg 67%
    15:00 +4°C° 0 mm 6 mps 757 mmHg 69%
    16:00 +4°C° 0 mm 6 mps 757 mmHg 70%
    17:00 +5°C° 0 mm 5 mps 758 mmHg 74%
    18:00 +3°C° 0 mm 5 mps 758 mmHg 78%
    19:00 +4°C° 0 mm 4 mps 758 mmHg 82%
    20:00 +4°C° 0 mm 3 mps 758 mmHg 84%
    21:00 +3°C° 0 mm 3 mps 759 mmHg 86%
    22:00 +4°C° 0 mm 2 mps 759 mmHg 89%
    23:00 +5°C° 0.2 mm 2 mps 759 mmHg 90%

    21 February, Thursday

    Time Temperature Precipitation Wind Pressure Humidity
    00:00 +4°C° 0.2 mm 3 mps 759 mmHg 91%
    01:00 +4°C° 0.2 mm 3 mps 759 mmHg 93%
    02:00 +4°C° 0.6 mm 3 mps 758 mmHg 93%
    03:00 +4°C° 0.6 mm 3 mps 758 mmHg 92%
    04:00 +4°C° 0.6 mm 4 mps 758 mmHg 92%
    05:00 +4°C° 0.5 mm 4 mps 758 mmHg 92%
    06:00 +4°C° 0.5 mm 4 mps 757 mmHg 91%
    07:00 +4°C° 0.5 mm 4 mps 757 mmHg 91%
    08:00 +4°C° 0.9 mm 3 mps 758 mmHg 92%
    09:00 +4°C° 0.9 mm 3 mps 758 mmHg 92%
    10:00 +6°C° 0.9 mm 2 mps 758 mmHg 93%
    11:00 +6°C° 0.1 mm 2 mps 758 mmHg 90%
    12:00 +7°C° 0.1 mm 3 mps 759 mmHg 88%
    13:00 +7°C° 0.1 mm 3 mps 759 mmHg 86%
    14:00 +7°C° 0 mm 3 mps 759 mmHg 87%
    15:00 +5°C° 0 mm 3 mps 760 mmHg 89%
    16:00 +6°C° 0 mm 2 mps 760 mmHg 90%
    17:00 +4°C° 0.1 mm 3 mps 761 mmHg 89%
    18:00 +3°C° 0.1 mm 3 mps 762 mmHg 89%
    19:00 +1°C° 0.1 mm 4 mps 763 mmHg 88%
    20:00 +1°C° 0 mm 3 mps 763 mmHg 85%
    21:00 +1°C° 0 mm 3 mps 764 mmHg 82%
    22:00 0°C° 0 mm 3 mps 765 mmHg 79%
    23:00 +1°C° 0 mm 2 mps 766 mmHg 77%

    22 February, Friday

    Time Temperature Precipitation Wind Pressure Humidity
    00:00 -1°C° 0 mm 2 mps 767 mmHg 74%
    01:00 -1°C° 0 mm 2 mps 767 mmHg 72%
    02:00 -2°C° 0 mm 2 mps 768 mmHg 70%
    03:00 -2°C° 0 mm 2 mps 769 mmHg 67%
    04:00 -2°C° 0 mm 3 mps 769 mmHg 65%
    05:00 -2°C° 0 mm 2 mps 770 mmHg 64%
    06:00 -2°C° 0 mm 2 mps 771 mmHg 63%
    07:00 -2°C° 0 mm 2 mps 771 mmHg 61%
    08:00 -2°C° 0 mm 2 mps 772 mmHg 56%
    09:00 -1°C° 0 mm 2 mps 773 mmHg 50%
    10:00 +1°C° 0 mm 2 mps 774 mmHg 44%
    11:00 +2°C° 0 mm 2 mps 774 mmHg 41%
    12:00 +2°C° 0 mm 2 mps 774 mmHg 38%
    13:00 +3°C° 0 mm 2 mps 775 mmHg 34%
    14:00 +4°C° 0 mm 1 mps 775 mmHg 37%
    15:00 +4°C° 0 mm 1 mps 775 mmHg 39%
    16:00 +3°C° 0 mm 0 mps 775 mmHg 42%
    17:00 +3°C° 0 mm 1 mps 775 mmHg 44%
    18:00 +2°C° 0 mm 1 mps 776 mmHg 47%
    19:00 +1°C° 0 mm 2 mps 776 mmHg 49%
    20:00 -1°C° 0 mm 2 mps 776 mmHg 51%
    21:00 -1°C° 0 mm 2 mps 776 mmHg 52%
    22:00 -1°C° 0 mm 3 mps 776 mmHg 54%
    23:00 -1°C° 0 mm 3 mps 776 mmHg 54%

    23 February, Saturday

    Time Temperature Precipitation Wind Pressure Humidity
    00:00 -2°C° 0 mm 4 mps 776 mmHg 55%
    01:00 -2°C° 0 mm 4 mps 776 mmHg 55%
    02:00 -2°C° 0 mm 4 mps 776 mmHg 57%
    03:00 -2°C° 0 mm 4 mps 775 mmHg 58%
    04:00 -2°C° 0 mm 4 mps 775 mmHg 59%
    05:00 -2°C° 0 mm 4 mps 775 mmHg 62%
    06:00 -2°C° 0 mm 4 mps 774 mmHg 65%
    07:00 -1°C° 0 mm 4 mps 774 mmHg 67%
    08:00 0°C° 0 mm 4 mps 774 mmHg 70%
    09:00 +1°C° 0 mm 5 mps 773 mmHg 73%
    10:00 +3°C° 0 mm 5 mps 773 mmHg 76%
    11:00 +5°C° 0 mm 5 mps 773 mmHg 78%
    12:00 +5°C° 0 mm 6 mps 772 mmHg 79%
    13:00 +5°C° 0 mm 6 mps 772 mmHg 81%
    14:00 +5°C° 0 mm 6 mps 772 mmHg 82%
    15:00 +6°C° 0 mm 5 mps 771 mmHg 83%
    16:00 +6°C° 0 mm 5 mps 771 mmHg 84%
    17:00 +6°C° 0 mm 5 mps 771 mmHg 85%
    18:00 +5°C° 0 mm 4 mps 771 mmHg 87%
    19:00 +4°C° 0 mm 4 mps 770 mmHg 88%
    20:00 +4°C° 0 mm 4 mps 770 mmHg 88%
    21:00 +4°C° 0 mm 3 mps 770 mmHg 87%
    22:00 +4°C° 0 mm 3 mps 770 mmHg 86%
    23:00 +4°C° 0 mm 3 mps 770 mmHg 86%
    Show more